User: anonymous   Login
Location: Unspecified
(0.0000°N, 0.0000°E)
Time: 22:56:11
(UTC+02:00)
Language:

CZ-4 R/B - Orbit

View from above orbital plane
View from above orbital plane
View from above satellite
View from above satellite

Ground track
Ground track

The orbit data is extracted from the following two-line orbital elements,

1 28059U 03049C   18112.74773736  .00000004  00000-0  12766-4 0  9997
2 28059  98.5264   9.2174 0050695  23.8975  42.4597 14.52523862768619
Epoch (UTC): 22 April 2018 17:56:44
Eccentricity: 0.0050695
inclination: 98.5264°
perigee height: 681 km
apogee height: 753 km
right ascension of ascending node: 9.2174°
argument of perigee: 23.8975°
revolutions per day: 14.52523862
mean anomaly at epoch: 42.4597°
orbit number at epoch: 76861

The dashed part of the orbit path shows where the satellite is in the earth's shadow,  

DLR